CFG1495 EDDH-EDDM

Flight info

Callsign CFG1495
Flight time 1h 9m
Altitude 30000
Route AMLUH2G/33 AMLUH M852 DENIX DCT ZUCKA DCT SODRO T703 LULAR T105 LANDU LANDU2B
Aircraft A320/M-SDE3FGHIRWY/LB1

Departure

Time 2026-05-07 19:41
Airport Hamburg Helmut Schmidt Airport (EDDH)

Arrival

Time 2026-05-07 20:51
Airport Munich Airport (EDDM)
Time Latitude Longitude Altitude Speed Heading
2026-05-07 19:16 53.62843 10.00213 49 ft 0 kts 62°
2026-05-07 19:31 53.62839 10.00199 47 ft 3 kts 62°
2026-05-07 19:31 53.62827 10.00163 45 ft 3 kts 57°
2026-05-07 19:32 53.62813 10.00132 45 ft 3 kts 39°
2026-05-07 19:32 53.62795 10.00117 44 ft 3 kts 343°
2026-05-07 19:32 53.62790 10.00119 44 ft 0 kts 331°
2026-05-07 19:36 53.62798 10.00112 45 ft 6 kts 332°
2026-05-07 19:36 53.62845 10.00056 49 ft 0 kts 290°
2026-05-07 19:38 53.62846 10.00054 49 ft 2 kts 290°
2026-05-07 19:38 53.62839 9.99944 48 ft 13 kts 245°
2026-05-07 19:39 53.62814 9.99792 45 ft 11 kts 299°
2026-05-07 19:39 53.62849 9.99764 45 ft 0 kts 332°
2026-05-07 19:41 53.62855 9.99758 43 ft 7 kts 332°
2026-05-07 19:41 53.63143 9.99511 44 ft 93 kts 333°
2026-05-07 19:41 53.63961 9.98818 52 ft 166 kts 333°
2026-05-07 19:41 53.65021 9.97858 764 ft 174 kts 331°
2026-05-07 19:42 53.66095 9.96921 1796 ft 175 kts 332°
2026-05-07 19:42 53.67244 9.95942 2503 ft 196 kts 333°
2026-05-07 19:42 53.68548 9.94926 3147 ft 215 kts 342°
2026-05-07 19:42 53.70062 9.94668 4088 ft 222 kts
2026-05-07 19:43 53.71633 9.94729 4677 ft 225 kts
2026-05-07 19:43 53.73073 9.95705 5184 ft 228 kts 40°
2026-05-07 19:43 53.73950 9.97898 5687 ft 230 kts 74°
2026-05-07 19:43 53.74174 10.00592 6425 ft 233 kts 85°
2026-05-07 19:44 53.74078 10.03321 7530 ft 235 kts 103°
2026-05-07 19:44 53.73463 10.05955 8240 ft 257 kts 120°
2026-05-07 19:44 53.72527 10.08697 8924 ft 279 kts 120°
2026-05-07 19:44 53.71539 10.11598 9678 ft 290 kts 120°
2026-05-07 19:45 53.70536 10.14565 9922 ft 291 kts 120°
2026-05-07 19:45 53.69465 10.17449 10002 ft 291 kts 129°
2026-05-07 19:45 53.68013 10.19835 10010 ft 296 kts 144°
2026-05-07 19:45 53.66115 10.21565 10014 ft 331 kts 160°
2026-05-07 19:46 53.63828 10.22678 10012 ft 342 kts 165°
2026-05-07 19:46 53.61524 10.23728 10007 ft 350 kts 165°
2026-05-07 19:46 53.59167 10.24804 10009 ft 352 kts 165°
2026-05-07 19:46 53.56784 10.25896 10110 ft 360 kts 165°
2026-05-07 19:47 53.54350 10.27014 11101 ft 362 kts 165°
2026-05-07 19:47 53.51909 10.28138 12180 ft 364 kts 165°
2026-05-07 19:47 53.49451 10.29266 13092 ft 368 kts 165°
2026-05-07 19:47 53.46959 10.30399 13972 ft 373 kts 165°
2026-05-07 19:48 53.44434 10.31544 14818 ft 378 kts 165°
2026-05-07 19:48 53.41880 10.32701 15637 ft 382 kts 165°
2026-05-07 19:48 53.39298 10.33866 16426 ft 387 kts 165°
2026-05-07 19:48 53.36686 10.35043 17201 ft 391 kts 165°
2026-05-07 19:49 53.34045 10.36232 17958 ft 396 kts 165°
2026-05-07 19:49 53.31369 10.37436 18696 ft 400 kts 165°
2026-05-07 19:49 53.28660 10.38650 19423 ft 405 kts 165°
2026-05-07 19:49 53.25928 10.39871 20105 ft 409 kts 165°
2026-05-07 19:50 53.23166 10.41108 20770 ft 413 kts 165°
2026-05-07 19:50 53.20376 10.42356 21406 ft 417 kts 165°
2026-05-07 19:50 53.17559 10.43611 22010 ft 421 kts 165°
2026-05-07 19:50 53.14717 10.44876 22591 ft 424 kts 165°
2026-05-07 19:51 53.11848 10.46110 23138 ft 428 kts 167°
2026-05-07 19:51 53.08926 10.47176 23653 ft 431 kts 169°
2026-05-07 19:51 53.05967 10.48105 23935 ft 434 kts 170°
2026-05-07 19:51 53.02991 10.48961 24008 ft 434 kts 171°
2026-05-07 19:52 53.00017 10.49794 24009 ft 434 kts 171°
2026-05-07 19:52 52.97043 10.50645 24055 ft 436 kts 170°
2026-05-07 19:52 52.94044 10.51531 24597 ft 438 kts 170°
2026-05-07 19:52 52.91037 10.52445 25096 ft 441 kts 169°
2026-05-07 19:53 52.88011 10.53380 25562 ft 444 kts 169°
2026-05-07 19:53 52.85001 10.54318 25987 ft 447 kts 169°
2026-05-07 19:53 52.81891 10.55290 26411 ft 450 kts 169°
2026-05-07 19:53 52.78804 10.56249 26815 ft 453 kts 169°
2026-05-07 19:54 52.75699 10.57207 27195 ft 456 kts 169°
2026-05-07 19:54 52.72612 10.58155 27554 ft 458 kts 169°
2026-05-07 19:54 52.69470 10.59121 27911 ft 461 kts 169°
2026-05-07 19:54 52.66310 10.60091 28241 ft 463 kts 169°
2026-05-07 19:55 52.63132 10.61063 28559 ft 465 kts 169°
2026-05-07 19:55 52.59951 10.62032 28905 ft 465 kts 169°
2026-05-07 19:55 52.53604 10.63953 29010 ft 463 kts 170°
2026-05-07 19:56 52.47268 10.65870 29016 ft 464 kts 169°
2026-05-07 19:56 52.44090 10.66834 29396 ft 464 kts 169°
2026-05-07 19:56 52.40922 10.67794 29864 ft 462 kts 169°
2026-05-07 19:57 52.37768 10.68745 30312 ft 461 kts 169°
2026-05-07 19:57 52.34620 10.69695 30751 ft 460 kts 169°
2026-05-07 19:57 52.31470 10.70645 30964 ft 460 kts 169°
2026-05-07 19:57 52.28324 10.71594 31010 ft 460 kts 169°
2026-05-07 19:58 52.22016 10.73488 31009 ft 461 kts 170°
2026-05-07 19:58 52.15703 10.75377 31009 ft 460 kts 170°
2026-05-07 19:59 52.09408 10.77255 31009 ft 460 kts 170°
2026-05-07 19:59 52.03110 10.79132 31009 ft 460 kts 170°
2026-05-07 20:00 51.96854 10.80979 31007 ft 460 kts 170°
2026-05-07 20:00 51.90565 10.82838 31005 ft 460 kts 170°
2026-05-07 20:01 51.84226 10.84716 31003 ft 460 kts 170°
2026-05-07 20:01 51.77976 10.86559 30998 ft 460 kts 170°
2026-05-07 20:02 51.71665 10.88402 30990 ft 460 kts 170°
2026-05-07 20:02 51.65505 10.91160 30988 ft 461 kts 156°
2026-05-07 20:03 51.59744 10.95701 30988 ft 461 kts 154°
2026-05-07 20:03 51.53984 11.00237 30990 ft 461 kts 154°
2026-05-07 20:04 51.48210 11.04772 30999 ft 461 kts 154°
2026-05-07 20:04 51.42434 11.09295 30997 ft 461 kts 154°
2026-05-07 20:05 51.36676 11.13792 30995 ft 461 kts 154°
2026-05-07 20:05 51.30914 11.18290 30997 ft 460 kts 154°
2026-05-07 20:06 51.25159 11.22761 30996 ft 460 kts 154°
2026-05-07 20:06 51.19432 11.27206 30996 ft 460 kts 154°
2026-05-07 20:07 51.13672 11.31666 30997 ft 460 kts 154°
2026-05-07 20:07 51.07905 11.36114 30996 ft 460 kts 154°
2026-05-07 20:08 51.02140 11.40543 30995 ft 460 kts 154°
2026-05-07 20:08 50.96370 11.44964 30995 ft 460 kts 154°
2026-05-07 20:09 50.90599 11.49376 30993 ft 461 kts 154°
2026-05-07 20:10 50.81928 11.55988 30993 ft 461 kts 154°
2026-05-07 20:10 50.76157 11.60376 30995 ft 461 kts 154°
2026-05-07 20:11 50.70367 11.64748 30994 ft 461 kts 154°
2026-05-07 20:11 50.64587 11.69119 30991 ft 461 kts 154°
2026-05-07 20:12 50.58830 11.73459 30990 ft 461 kts 154°
2026-05-07 20:12 50.53043 11.77799 30989 ft 461 kts 155°
2026-05-07 20:13 50.47238 11.82141 30989 ft 461 kts 155°
2026-05-07 20:13 50.41400 11.86325 30988 ft 462 kts 156°
2026-05-07 20:14 50.35479 11.90264 30989 ft 462 kts 158°
2026-05-07 20:14 50.29561 11.94159 30991 ft 462 kts 157°
2026-05-07 20:15 50.23649 11.98109 30991 ft 462 kts 157°
2026-05-07 20:15 50.17762 12.02083 30989 ft 462 kts 156°
2026-05-07 20:16 50.12856 12.05395 30989 ft 462 kts 157°
2026-05-07 20:16 50.06955 12.09352 30989 ft 462 kts 157°
2026-05-07 20:17 50.01044 12.13285 30991 ft 462 kts 157°
2026-05-07 20:17 49.95130 12.17211 30991 ft 462 kts 157°
2026-05-07 20:18 49.89220 12.21124 30992 ft 462 kts 157°
2026-05-07 20:18 49.86251 12.23089 30832 ft 462 kts 157°
2026-05-07 20:18 49.83296 12.25047 30582 ft 463 kts 157°
2026-05-07 20:18 49.80329 12.27009 30331 ft 463 kts 157°
2026-05-07 20:19 49.77365 12.28964 30081 ft 464 kts 157°
2026-05-07 20:19 49.74395 12.30924 29831 ft 464 kts 156°
2026-05-07 20:19 49.71541 12.33287 29571 ft 465 kts 147°
2026-05-07 20:19 49.68917 12.36224 29339 ft 466 kts 142°
2026-05-07 20:20 49.66373 12.39223 29083 ft 467 kts 143°
2026-05-07 20:20 49.63783 12.42256 28829 ft 467 kts 143°
2026-05-07 20:20 49.61187 12.45278 28589 ft 467 kts 143°
2026-05-07 20:20 49.58595 12.48286 28334 ft 468 kts 143°
2026-05-07 20:21 49.55988 12.51305 28085 ft 468 kts 143°
2026-05-07 20:21 49.53388 12.54312 27834 ft 469 kts 143°
2026-05-07 20:21 49.50771 12.57342 27586 ft 470 kts 143°
2026-05-07 20:21 49.48148 12.60380 27334 ft 471 kts 143°
2026-05-07 20:22 49.45527 12.63409 27082 ft 471 kts 143°
2026-05-07 20:22 49.42910 12.66402 26833 ft 469 kts 145°
2026-05-07 20:22 49.40085 12.68887 26578 ft 467 kts 156°
2026-05-07 20:22 49.37029 12.70490 26331 ft 464 kts 167°
2026-05-07 20:23 49.33831 12.71105 26081 ft 463 kts 179°
2026-05-07 20:23 49.30627 12.70724 25829 ft 461 kts 191°
2026-05-07 20:23 49.27549 12.69407 25579 ft 458 kts 201°
2026-05-07 20:23 49.24649 12.67402 25332 ft 456 kts 205°
2026-05-07 20:24 49.21784 12.65360 24565 ft 452 kts 205°
2026-05-07 20:24 49.18941 12.63332 23493 ft 449 kts 205°
2026-05-07 20:24 49.16128 12.61317 22588 ft 443 kts 205°
2026-05-07 20:24 49.13353 12.59326 21695 ft 437 kts 205°
2026-05-07 20:25 49.10616 12.57361 20850 ft 432 kts 205°
2026-05-07 20:25 49.07915 12.55423 20029 ft 426 kts 205°
2026-05-07 20:25 49.05249 12.53515 19257 ft 420 kts 205°
2026-05-07 20:25 49.02619 12.51638 18513 ft 415 kts 205°
2026-05-07 20:26 49.00025 12.49787 17804 ft 409 kts 205°
2026-05-07 20:26 48.97465 12.47962 17123 ft 403 kts 205°
2026-05-07 20:26 48.94936 12.46163 16463 ft 398 kts 205°
2026-05-07 20:26 48.92446 12.44389 15798 ft 393 kts 205°
2026-05-07 20:27 48.89980 12.42633 15124 ft 388 kts 205°
2026-05-07 20:27 48.87545 12.40899 14428 ft 385 kts 205°
2026-05-07 20:27 48.85134 12.39187 13717 ft 381 kts 205°
2026-05-07 20:27 48.82747 12.37497 12980 ft 377 kts 205°
2026-05-07 20:28 48.80373 12.35820 12203 ft 374 kts 205°
2026-05-07 20:28 48.77954 12.34443 11415 ft 371 kts 195°
2026-05-07 20:28 48.75464 12.33474 10803 ft 363 kts 194°
2026-05-07 20:28 48.73086 12.32559 10672 ft 342 kts 194°
2026-05-07 20:29 48.70840 12.31693 10545 ft 324 kts 194°
2026-05-07 20:29 48.68710 12.30871 10427 ft 308 kts 194°
2026-05-07 20:29 48.66672 12.30088 10215 ft 297 kts 194°
2026-05-07 20:29 48.64693 12.29329 10037 ft 291 kts 194°
2026-05-07 20:30 48.62758 12.28474 9999 ft 289 kts 204°
2026-05-07 20:30 48.61090 12.26809 10009 ft 289 kts 225°
2026-05-07 20:30 48.59921 12.24360 9940 ft 288 kts 246°
2026-05-07 20:30 48.59407 12.21453 9780 ft 287 kts 265°
2026-05-07 20:31 48.59305 12.18443 9583 ft 287 kts 267°
2026-05-07 20:31 48.59204 12.15442 9350 ft 286 kts 267°
2026-05-07 20:31 48.59097 12.12453 9098 ft 285 kts 267°
2026-05-07 20:31 48.58985 12.09471 8849 ft 284 kts 266°
2026-05-07 20:32 48.58870 12.06503 8599 ft 283 kts 266°
2026-05-07 20:32 48.58759 12.03578 8351 ft 282 kts 266°
2026-05-07 20:32 48.58649 12.00634 8101 ft 280 kts 267°
2026-05-07 20:32 48.58540 11.97700 7850 ft 279 kts 266°
2026-05-07 20:33 48.58430 11.94773 7600 ft 278 kts 266°
2026-05-07 20:33 48.58318 11.91861 7349 ft 277 kts 266°
2026-05-07 20:33 48.58205 11.88956 7099 ft 276 kts 266°
2026-05-07 20:33 48.58092 11.86063 6854 ft 275 kts 266°
2026-05-07 20:34 48.57980 11.83186 6600 ft 274 kts 266°
2026-05-07 20:34 48.57865 11.80311 6347 ft 273 kts 266°
2026-05-07 20:34 48.57749 11.77449 6093 ft 272 kts 266°
2026-05-07 20:34 48.57633 11.74603 5846 ft 271 kts 266°
2026-05-07 20:35 48.57516 11.71759 5598 ft 270 kts 266°
2026-05-07 20:35 48.57400 11.68932 5345 ft 269 kts 266°
2026-05-07 20:35 48.57282 11.66109 5104 ft 268 kts 265°
2026-05-07 20:35 48.56834 11.63398 5000 ft 267 kts 242°
2026-05-07 20:36 48.55642 11.61275 5008 ft 268 kts 216°
2026-05-07 20:36 48.53934 11.60187 5009 ft 269 kts 189°
2026-05-07 20:36 48.52085 11.60388 5009 ft 270 kts 162°
2026-05-07 20:36 48.50514 11.61820 5009 ft 271 kts 135°
2026-05-07 20:37 48.49511 11.64251 5009 ft 271 kts 107°
2026-05-07 20:37 48.49359 11.67019 5009 ft 271 kts 80°
2026-05-07 20:37 48.49938 11.69721 5009 ft 272 kts 68°
2026-05-07 20:37 48.50548 11.72422 5006 ft 272 kts 78°
2026-05-07 20:38 48.50685 11.75255 5009 ft 272 kts 94°
2026-05-07 20:38 48.50278 11.78023 5009 ft 272 kts 111°
2026-05-07 20:38 48.49419 11.80560 5010 ft 272 kts 119°
2026-05-07 20:38 48.48497 11.83046 5009 ft 272 kts 119°
2026-05-07 20:39 48.47576 11.85529 5009 ft 272 kts 119°
2026-05-07 20:39 48.46651 11.88029 5009 ft 272 kts 119°
2026-05-07 20:39 48.45753 11.90460 5004 ft 256 kts 119°
2026-05-07 20:39 48.44919 11.92713 5005 ft 236 kts 119°
2026-05-07 20:40 48.44149 11.94790 5006 ft 219 kts 119°
2026-05-07 20:40 48.43433 11.96720 5005 ft 203 kts 119°
2026-05-07 20:40 48.42753 11.98559 5007 ft 200 kts 119°
2026-05-07 20:40 48.42078 12.00387 5009 ft 199 kts 119°
2026-05-07 20:41 48.41353 12.02161 5003 ft 199 kts 134°
2026-05-07 20:41 48.40155 12.03081 5010 ft 196 kts 177°
2026-05-07 20:41 48.38892 12.02607 5027 ft 182 kts 217°
2026-05-07 20:41 48.38172 12.01208 5019 ft 161 kts 251°
2026-05-07 20:42 48.38010 11.99677 5018 ft 138 kts 264°
2026-05-07 20:42 48.37906 11.98289 5009 ft 131 kts 264°
2026-05-07 20:42 48.37806 11.96951 5009 ft 130 kts 264°
2026-05-07 20:42 48.37704 11.95601 5009 ft 130 kts 264°
2026-05-07 20:43 48.37603 11.94252 5009 ft 130 kts 264°
2026-05-07 20:43 48.37500 11.92886 5027 ft 142 kts 264°
2026-05-07 20:43 48.37369 11.91193 5821 ft 172 kts 263°
2026-05-07 20:43 48.37230 11.89411 6850 ft 170 kts 263°
2026-05-07 20:44 48.37169 11.87640 7299 ft 172 kts 278°
2026-05-07 20:44 48.37705 11.86013 6836 ft 184 kts 315°
2026-05-07 20:44 48.38703 11.84677 6300 ft 198 kts 320°
2026-05-07 20:44 48.39916 11.83747 6001 ft 198 kts 350°
2026-05-07 20:45 48.41266 11.83918 5719 ft 197 kts 22°
2026-05-07 20:45 48.42341 11.85154 5413 ft 197 kts 55°
2026-05-07 20:45 48.42808 11.87068 5133 ft 197 kts 88°
2026-05-07 20:45 48.42527 11.89049 4850 ft 196 kts 117°
2026-05-07 20:46 48.41908 11.90883 4559 ft 197 kts 117°
2026-05-07 20:46 48.41294 11.92715 4292 ft 196 kts 117°
2026-05-07 20:46 48.40681 11.94552 4038 ft 195 kts 117°
2026-05-07 20:46 48.40074 11.96374 3933 ft 195 kts 117°
2026-05-07 20:47 48.39470 11.98192 3932 ft 194 kts 117°
2026-05-07 20:47 48.38854 12.00012 3933 ft 195 kts 121°
2026-05-07 20:47 48.37865 12.01274 3906 ft 194 kts 165°
2026-05-07 20:47 48.36561 12.01043 3760 ft 190 kts 215°
2026-05-07 20:48 48.35860 11.99470 3620 ft 189 kts 263°
2026-05-07 20:48 48.36147 11.97594 3435 ft 189 kts 298°
2026-05-07 20:48 48.36721 11.95817 3236 ft 189 kts 294°
2026-05-07 20:48 48.37186 11.93994 3011 ft 185 kts 284°
2026-05-07 20:49 48.37320 11.92078 2770 ft 184 kts 270°
2026-05-07 20:49 48.37262 11.90169 2533 ft 181 kts 266°
2026-05-07 20:49 48.37153 11.88423 2311 ft 155 kts 264°
2026-05-07 20:49 48.37045 11.86884 2104 ft 142 kts 264°
2026-05-07 20:50 48.36934 11.85445 1880 ft 135 kts 263°
2026-05-07 20:50 48.36823 11.84101 1695 ft 128 kts 263°
2026-05-07 20:50 48.36751 11.82793 1604 ft 124 kts 264°
2026-05-07 20:50 48.36638 11.81533 1461 ft 113 kts 263°
2026-05-07 20:51 48.36568 11.80512 1460 ft 85 kts 264°
2026-05-07 20:51 48.36512 11.79741 1464 ft 64 kts 264°
2026-05-07 20:51 48.36466 11.79149 1469 ft 49 kts 262°
2026-05-07 20:51 48.36376 11.78861 1470 ft 27 kts 242°
2026-05-07 20:52 48.36340 11.78781 1463 ft 0 kts 232°
2026-05-07 20:54 48.36331 11.78764 1464 ft 10 kts 232°
2026-05-07 20:54 48.36254 11.78610 1466 ft 22 kts 233°
2026-05-07 20:54 48.36143 11.78479 1467 ft 18 kts 175°
2026-05-07 20:55 48.36032 11.78517 1460 ft 9 kts 121°
2026-05-07 20:55 48.36035 11.78586 1460 ft 11 kts 87°
2026-05-07 20:55 48.36047 11.78796 1468 ft 23 kts 84°
2026-05-07 20:55 48.36068 11.79059 1464 ft 27 kts 79°
2026-05-07 20:56 48.36077 11.79298 1461 ft 13 kts 120°
2026-05-07 20:56 48.36028 11.79326 1464 ft 8 kts 167°
2026-05-07 20:56 48.35933 11.79347 1467 ft 21 kts 171°
2026-05-07 20:56 48.35806 11.79392 1464 ft 7 kts 175°
2026-05-07 20:57 48.35799 11.79383 1467 ft 0 kts 234°
2026-05-07 20:57 48.35795 11.79375 1461 ft 2 kts 234°
2026-05-07 20:57 48.35786 11.79358 1460 ft 2 kts 229°
2026-05-07 20:57 48.35778 11.79356 1462 ft 1 kts 177°
2026-05-07 20:58 48.35767 11.79358 1466 ft 2 kts 171°
2026-05-07 20:58 48.35726 11.79380 1462 ft 4 kts 158°
2026-05-07 20:58 48.35717 11.79395 1463 ft 1 kts 132°
2026-05-07 20:58 48.35715 11.79403 1465 ft 0 kts 107°
2026-05-07 20:59 48.35708 11.79445 1467 ft 7 kts 105°
2026-05-07 20:59 48.35706 11.79451 1465 ft 0 kts 106°
2026-05-07 20:59 48.35702 11.79475 1460 ft 0 kts 106°
2026-05-07 20:59 48.35702 11.79477 1460 ft 0 kts 101°
2026-05-07 21:00 48.35717 11.79476 1466 ft 10 kts 343°
2026-05-07 21:00 48.35794 11.79462 1461 ft 12 kts 353°
2026-05-07 21:00 48.35898 11.79402 1458 ft 19 kts 297°
2026-05-07 21:00 48.35992 11.79339 1467 ft 17 kts 351°
2026-05-07 21:01 48.36084 11.79265 1468 ft 14 kts 289°
2026-05-07 21:01 48.36077 11.79107 1468 ft 21 kts 261°
2026-05-07 21:01 48.36055 11.78823 1459 ft 32 kts 267°
2026-05-07 21:01 48.36032 11.78566 1462 ft 20 kts 262°
2026-05-07 21:02 48.36013 11.78352 1467 ft 18 kts 268°
2026-05-07 21:02 48.36000 11.78150 1463 ft 21 kts 260°
2026-05-07 21:02 48.35984 11.77926 1464 ft 23 kts 262°
2026-05-07 21:02 48.35927 11.77840 1464 ft 11 kts 178°
2026-05-07 21:03 48.35838 11.77855 1458 ft 19 kts 178°
2026-05-07 21:03 48.35762 11.77780 1465 ft 11 kts 250°
2026-05-07 21:03 48.35736 11.77726 1464 ft 0 kts 216°
2026-05-07 21:03 48.35699 11.77613 1460 ft 0 kts 263°
2026-05-07 21:04 48.35699 11.77610 1460 ft 1 kts 263°
2026-05-07 21:04 48.35698 11.77604 1459 ft 0 kts 263°